LEMUR-2-JINDRA (46909 NORAD) Tracking and Keplerian Element Data

This shows tracking and keplerian element data for the satellite.

Feedback or suggestion? Click here.




ElementValue
Catalog46909
NameLEMUR-2-JINDRA
Epoch Orbit1067
Epoch Day17.45287238
Epoch Year2021
RAAN39.6299
Inclination36.9052
Eccentricity0.0006881
Argument of Perigee197.1243
Mean Anonmoly162.9266
Mean Motion14.99003946
Decay Rate9.45E-06
L11 46909U 20081E 21017.45287238 .00000945 00000-0 82815-4 0 9995
L22 46909 36.9052 39.6299 0006881 197.1243 162.9266 14.99003946 10674

Live tracking and technical data element details for LEMUR-2-JINDRA (NORAD 46909). LEMUR-2-JINDRA can be tracked NOW for your location showing map with azimuth and elevation plus other details from your city location.

Track the satellite on the map from your city or location and see movement details for azimuth, elevation, latitude, longitude, range, height, and movement on the map or in text.







IsCatalogInMostPopularTable: catalog: 46909, numindb: 27
Update: records affected: 1



GetName: 46909 LEMUR-2-JINDRA

Hit Count: updated at: Mon, 18 Jan 2021 17:34:20 GMT